User: anonymous   Login
Location: Follega
(52.8850°N, 5.7362°E)
Time: 16:03:22
(UTC+00:00)
Language:

Cosmos 2228 - Orbit

View from above orbital plane
View from above orbital plane
View from above satellite
View from above satellite

Ground track
Ground track

The orbit data is extracted from the following two-line orbital elements,

1 22286U 92094A   20225.11762245  .00000132  00000-0  11633-4 0  9997
2 22286  82.5214   7.3542 0019618 255.1782 104.7263 14.88156145493798
Epoch (UTC): 12 August 2020 02:49:22
Eccentricity: 0.0019618
inclination: 82.5214°
perigee height: 590 km
apogee height: 617 km
right ascension of ascending node: 7.3542°
argument of perigee: 255.1782°
revolutions per day: 14.88156145
mean anomaly at epoch: 104.7263°
orbit number at epoch: 49379

The dashed part of the orbit path shows where the satellite is in the earth's shadow,  

DLR